G4WLC-1 Weather Reports


time (UTC)temp
F
wind
direction
speed
knots
gust
knots
rain 1hr
in
rain 24hr
in
rain mn
in
humidity
%
barometer
mb
20260503021810 47 290 0.0 0.0 0.00 0.93 0.00 93 1009.4
20260503021310 47 290 0.0 0.0 0.00 0.93 0.00 93 1009.4
20260503020811 48 290 0.0 0.0 0.00 0.93 0.00 93 1009.5
20260503020310 48 290 0.0 0.0 0.00 0.93 0.00 93 1009.6
20260503015811 48 290 0.0 0.0 0.00 0.93 0.00 93 1009.7
20260503015310 48 290 0.0 0.0 0.00 0.93 0.00 93 1009.7
20260503014939 48 290 0.0 0.9 0.00 0.93 0.00 93 1009.8
20260503014811 48 290 0.0 0.9 0.00 0.93 0.00 93 1009.8
20260503014311 49 290 0.0 0.9 0.00 0.93 0.00 93 1009.8
20260503013811 49 293 0.0 0.0 0.00 0.93 0.00 93 1009.8
20260503013311 49 293 0.0 0.9 0.00 0.93 0.00 93 1009.9
20260503012811 49 293 0.0 0.9 0.00 0.93 0.00 93 1009.9
20260503012311 49 294 0.0 0.9 0.00 0.93 0.00 93 1009.9
20260503011811 49 283 0.0 0.9 0.00 0.93 0.00 93 1010.0
20260503011311 49 283 0.0 0.9 0.00 0.93 0.00 93 1009.9
20260503010811 49 283 0.0 0.9 0.00 0.93 0.00 93 1010.0
20260503010311 49 283 0.0 0.9 0.00 0.93 0.00 93 1010.0
20260503005811 49 290 0.0 0.9 0.00 0.93 0.00 93 1010.0
20260503005311 49 266 0.0 0.9 0.00 0.93 0.00 93 1010.1
20260503004811 48 266 0.0 0.9 0.00 0.93 0.00 93 1010.1
20260503004311 49 288 0.0 0.9 0.00 0.93 0.00 93 1010.2
20260503003811 49 333 0.0 0.9 0.00 0.93 0.00 93 1010.2
20260503003311 48 294 0.0 0.9 0.00 0.93 0.00 93 1010.1
20260503002811 48 266 0.0 0.0 0.00 0.93 0.00 93 1010.1
20260503002311 48 266 0.0 0.9 0.00 0.93 0.00 93 1010.1
20260503001811 48 352 0.0 0.9 0.00 0.93 0.00 93 1010.1
20260503001311 48 15 0.0 0.9 0.00 0.93 0.93 93 1010.0
20260503000811 48 344 0.0 1.7 0.00 0.93 0.93 93 1010.1
20260503000311 49 21 0.0 0.9 0.00 0.93 0.93 93 1010.2
20260502235811 49 344 0.0 0.9 0.00 0.93 0.93 93 1010.1
20260502235311 49 7 0.0 0.0 0.00 0.93 0.93 92 1010.2
20260502234811 49 7 0.0 0.9 0.00 0.93 0.93 92 1010.3
20260502234311 49 3 0.0 2.6 0.00 0.93 0.93 93 1010.3
20260502233811 49 309 0.0 0.9 0.00 0.93 0.93 93 1010.3
20260502233311 49 305 0.0 0.9 0.00 0.93 0.93 93 1010.3
20260502232811 50 245 0.0 0.9 0.00 0.93 0.93 93 1010.5
20260502232311 50 281 0.0 0.9 0.00 0.93 0.93 93 1010.4
20260502231811 50 264 0.0 0.9 0.00 0.93 0.93 93 1010.5
20260502231311 50 273 0.0 0.9 0.00 0.93 0.93 93 1010.5
20260502230811 50 273 0.0 0.9 0.00 0.93 0.93 92 1010.7
20260502230311 50 273 0.0 0.9 0.00 0.93 0.93 92 1010.8
20260502225811 50 267 0.0 1.7 0.00 0.93 0.93 92 1010.8
20260502225311 50 285 0.0 0.9 0.00 0.93 0.93 92 1010.7
20260502224811 50 259 0.0 0.9 0.00 0.93 0.93 92 1010.7
20260502224311 50 252 0.0 0.9 0.01 0.93 0.93 92 1010.6
20260502223811 50 302 0.0 0.9 0.01 0.93 0.93 93 1010.6
20260502223311 50 346 0.0 0.9 0.01 0.93 0.93 93 1010.7
20260502222811 50 346 0.0 0.0 0.01 0.93 0.93 93 1010.6
20260502222311 50 346 0.0 0.0 0.01 0.93 0.93 93 1010.6
20260502221811 50 346 0.0 0.0 0.01 0.93 0.93 92 1010.6
20260502221311 50 346 0.0 0.0 0.01 0.93 0.93 92 1010.6
20260502220811 50 346 0.0 0.0 0.01 0.93 0.93 92 1010.7
20260502220311 50 346 0.0 0.0 0.01 0.93 0.93 92 1010.7
20260502215811 50 346 0.0 2.6 0.01 0.93 0.93 92 1010.5
20260502215311 50 339 0.0 0.9 0.01 0.93 0.93 92 1010.7
20260502214811 50 300 0.0 0.9 0.01 0.93 0.93 92 1010.7
20260502214311 50 352 0.0 1.7 0.00 0.92 0.92 92 1010.7
20260502213811 50 359 0.0 0.9 0.01 0.92 0.92 92 1010.7
20260502213311 50 356 0.0 1.7 0.01 0.92 0.92 92 1010.9
20260502212811 51 357 0.0 1.7 0.01 0.92 0.92 92 1010.9
20260502212311 51 345 0.0 0.9 0.02 0.92 0.92 92 1010.9
20260502211811 51 302 0.0 0.9 0.02 0.92 0.92 92 1010.9
20260502211311 51 354 0.0 1.7 0.02 0.92 0.92 92 1010.9
20260502210811 51 25 0.0 1.7 0.02 0.92 0.92 92 1011.0
20260502210311 51 347 0.0 0.9 0.03 0.92 0.92 92 1010.9
20260502205811 51 346 0.0 0.9 0.03 0.92 0.92 92 1011.1
20260502205311 51 350 0.0 1.7 0.03 0.92 0.92 92 1011.0
20260502204811 51 354 0.0 0.9 0.04 0.92 0.92 92 1011.1
20260502204311 51 358 0.0 1.7 0.04 0.92 0.92 92 1011.2
20260502203811 51 8 0.0 0.9 0.03 0.91 0.91 92 1011.3
20260502203311 51 13 0.0 0.9 0.04 0.91 0.91 92 1011.2
20260502202811 51 335 0.0 0.9 0.04 0.91 0.91 92 1011.3
20260502202311 51 314 0.0 0.9 0.04 0.90 0.90 92 1011.2
20260502201811 51 13 0.0 0.9 0.04 0.90 0.90 92 1011.2
20260502201311 52 263 0.0 0.0 0.05 0.90 0.90 92 1011.2
20260502200811 52 253 0.0 1.7 0.06 0.90 0.90 92 1011.3
20260502200311 52 311 0.0 0.9 0.07 0.89 0.89 92 1011.2
20260502195811 52 8 0.0 0.9 0.10 0.89 0.89 92 1011.2
20260502195311 52 346 0.0 0.9 0.13 0.89 0.89 92 1011.2
20260502194811 52 351 0.0 0.9 0.16 0.88 0.88 92 1011.1
20260502194311 52 352 0.0 0.9 0.22 0.88 0.88 92 1011.2
20260502193812 52 349 0.0 0.9 0.28 0.88 0.88 92 1011.2
20260502193311 52 16 0.0 0.9 0.31 0.87 0.87 92 1011.2
20260502192811 52 340 0.0 0.0 0.33 0.87 0.87 92 1011.1
20260502192311 52 341 0.0 0.9 0.36 0.86 0.86 92 1011.2
20260502191811 52 355 0.0 0.9 0.37 0.86 0.86 92 1011.2
20260502191311 52 356 0.0 1.7 0.38 0.85 0.85 92 1011.2
20260502190811 53 345 0.0 0.9 0.39 0.84 0.84 92 1011.2
20260502190311 53 139 0.0 0.9 0.39 0.82 0.82 92 1011.3
20260502185811 53 139 0.0 0.0 0.38 0.79 0.79 92 1011.4
20260502185311 53 139 0.0 0.9 0.37 0.76 0.76 92 1011.4
20260502184811 53 139 0.0 0.0 0.34 0.72 0.72 92 1011.5
20260502184311 53 25 0.0 0.9 0.29 0.66 0.66 92 1011.4
20260502183811 53 357 0.0 1.7 0.23 0.60 0.60 91 1011.4
20260502183311 53 18 0.0 0.9 0.19 0.56 0.56 91 1011.4
20260502182811 53 27 0.0 0.9 0.18 0.54 0.54 91 1011.6
20260502182311 53 51 0.0 0.0 0.17 0.50 0.50 91 1011.5
20260502181811 53 51 0.0 0.0 0.17 0.49 0.49 91 1011.5
20260502181311 53 51 0.0 0.9 0.16 0.47 0.47 91 1011.6
20260502180811 53 345 0.0 1.7 0.14 0.45 0.45 91 1011.6
20260502180311 53 13 0.0 1.7 0.13 0.43 0.43 91 1011.5
20260502170312 54 357 0.0 1.7 0.17 0.30 0.30 90 1012.1
20260502164312 54 281 0.0 0.9 0.21 0.26 0.26 89 1012.4
20260502163812 54 281 0.0 0.0 0.21 0.24 0.24 89 1012.7
20260502163312 54 281 0.0 0.0 0.21 0.23 0.23 88 1012.7
20260502162812 55 238 0.0 0.9 0.20 0.21 0.21 88 1012.7
20260502162312 55 281 0.0 0.9 0.19 0.20 0.20 88 1012.9
20260502161812 55 241 0.0 0.9 0.17 0.18 0.18 87 1012.9
20260502161312 55 241 0.0 0.9 0.15 0.16 0.16 86 1012.9
20260502160812 56 241 0.0 0.9 0.13 0.14 0.14 86 1013.0
20260502160312 56 241 0.0 0.9 0.12 0.13 0.13 85 1013.0
20260502152312 60 288 0.0 0.0 0.00 0.01 0.01 76 1012.8
20260502151812 60 288 0.0 0.0 0.00 0.01 0.01 74 1012.9
20260502151312 60 288 0.0 0.9 0.00 0.01 0.01 73 1012.8
20260502150812 61 86 0.0 0.0 0.00 0.01 0.01 74 1012.8
20260502150312 61 86 0.0 0.9 0.00 0.01 0.01 73 1013.0
20260502130312 61 105 0.9 4.3 0.00 0.05 0.01 70 1014.9
20260502123812 63 251 0.9 4.3 0.00 0.05 0.01 68 1015.2
20260502123312 62 182 0.9 5.2 0.00 0.05 0.01 69 1015.2
20260502122812 63 260 0.9 2.6 0.00 0.05 0.01 67 1015.2
20260502122312 62 134 0.9 4.3 0.00 0.05 0.01 65 1015.4
20260502121812 62 147 0.9 4.3 0.00 0.05 0.01 67 1015.6
20260502121312 62 155 0.9 4.3 0.00 0.05 0.01 65 1015.5
20260502120812 62 142 0.9 5.2 0.00 0.05 0.01 66 1015.8
20260502120312 61 267 0.9 4.3 0.00 0.05 0.01 69 1015.7
20260502115812 61 169 0.9 1.7 0.00 0.05 0.01 72 1015.8
20260502115312 61 264 0.9 3.5 0.00 0.05 0.01 68 1016.0
20260502114812 61 211 0.9 4.3 0.00 0.05 0.01 69 1016.1
20260502114312 61 127 0.9 4.3 0.00 0.05 0.01 67 1016.0
20260502113812 61 112 1.7 4.3 0.00 0.05 0.01 67 1016.1
20260502113312 61 124 0.9 6.1 0.00 0.05 0.01 68 1016.2
20260502112812 60 228 0.9 3.5 0.00 0.05 0.01 71 1016.3
20260502112312 60 130 0.9 2.6 0.00 0.05 0.01 69 1016.4
20260502111812 59 136 1.7 3.5 0.00 0.05 0.01 70 1016.4
20260502111312 59 271 0.9 4.3 0.00 0.05 0.01 68 1016.4
20260502110812 59 243 0.9 1.7 0.00 0.05 0.01 71 1016.5
20260502110312 59 244 2.6 5.2 0.00 0.05 0.01 75 1016.6
20260502105812 59 231 3.5 7.0 0.00 0.05 0.01 72 1016.7
20260502105312 59 255 3.5 9.6 0.00 0.05 0.01 72 1016.9
20260502104812 59 266 3.5 7.0 0.00 0.05 0.01 73 1016.9
20260502104312 59 135 3.5 8.7 0.00 0.05 0.01 75 1016.9
20260502103812 59 145 2.6 6.1 0.00 0.05 0.01 71 1016.9
20260502103312 59 198 1.7 7.0 0.00 0.05 0.01 77 1016.8
20260502102812 59 154 1.7 7.0 0.00 0.05 0.01 76 1016.6
20260502102312 58 151 1.7 4.3 0.00 0.05 0.01 76 1016.8
20260502101812 58 128 2.6 5.2 0.00 0.05 0.01 77 1016.9
20260502101312 58 243 2.6 6.1 0.00 0.05 0.01 77 1017.1
20260502100812 59 134 1.7 6.1 0.00 0.05 0.01 77 1017.1
20260502100312 58 129 1.7 5.2 0.00 0.05 0.01 78 1017.0
20260502091312 57 256 0.9 1.7 0.00 0.05 0.01 81 1017.0
20260502090812 57 94 0.9 4.3 0.00 0.05 0.01 81 1016.9
20260502090312 57 276 0.0 2.6 0.00 0.05 0.01 81 1017.0
20260502071313 50 154 0.0 1.7 0.00 0.05 0.01 91 1017.7
20260502070813 50 139 0.0 0.9 0.00 0.05 0.01 91 1017.7
20260502070313 50 235 0.0 0.0 0.00 0.05 0.01 91 1017.7
20260502065813 49 238 0.0 0.0 0.00 0.05 0.01 92 1017.7
20260502065313 49 238 0.0 0.0 0.00 0.05 0.01 92 1017.6
20260502064813 48 238 0.0 0.9 0.00 0.05 0.01 92 1017.7
20260502064313 48 224 0.0 0.0 0.00 0.05 0.01 92 1017.6
20260502063813 48 224 0.0 0.9 0.00 0.05 0.01 92 1017.8
20260502063313 47 224 0.0 0.0 0.00 0.05 0.01 92 1017.7
20260502062813 47 224 0.0 0.0 0.00 0.05 0.01 92 1017.8
20260502062313 46 224 0.0 0.9 0.00 0.05 0.01 92 1018.0
20260502061813 46 224 0.0 0.0 0.00 0.05 0.01 92 1018.0
20260502061313 46 224 0.0 0.0 0.00 0.05 0.01 92 1018.1
20260502060813 45 224 0.0 0.0 0.00 0.05 0.01 92 1018.1
20260502060313 45 224 0.0 0.0 0.00 0.05 0.01 92 1018.0
20260502055813 44 224 0.0 0.0 0.00 0.05 0.01 92 1018.0
20260502055313 44 224 0.0 0.9 0.00 0.05 0.01 92 1017.9
20260502054813 44 224 0.0 0.0 0.00 0.05 0.01 92 1017.9
20260502054313 44 224 0.0 0.0 0.00 0.05 0.01 92 1017.9
20260502053813 44 224 0.0 0.0 0.00 0.05 0.01 92 1017.9
20260502053313 44 224 0.0 0.0 0.00 0.05 0.01 92 1017.9
20260502052813 44 224 0.0 0.0 0.00 0.05 0.01 92 1017.9
20260502052313 44 224 0.0 0.0 0.00 0.05 0.01 91 1017.9
20260502051813 43 224 0.0 0.0 0.00 0.05 0.01 91 1018.0
20260502051313 43 224 0.0 0.0 0.00 0.05 0.01 91 1017.9
20260502050813 44 224 0.0 0.0 0.00 0.05 0.01 91 1017.7
20260502050313 44 224 0.0 0.0 0.00 0.05 0.01 91 1017.6
20260502045813 44 224 0.0 0.9 0.00 0.05 0.01 91 1017.7
20260502045313 45 264 0.0 0.9 0.00 0.05 0.01 91 1017.6
20260502044813 45 304 0.0 0.0 0.00 0.05 0.01 91 1017.7
20260502044313 45 324 0.0 0.0 0.00 0.05 0.01 92 1017.7
20260502043813 45 321 0.0 0.0 0.01 0.05 0.01 92 1017.6
20260502043313 45 322 0.0 0.0 0.01 0.05 0.01 92 1017.7
20260502042813 45 323 0.0 0.9 0.01 0.05 0.01 91 1017.7
20260502042313 45 297 0.0 0.9 0.01 0.05 0.01 92 1017.7
20260502041813 45 295 0.0 0.0 0.01 0.05 0.01 92 1017.9
20260502041313 45 295 0.0 0.9 0.01 0.05 0.01 92 1017.8
20260502040813 45 291 0.0 0.9 0.01 0.05 0.01 92 1017.9
20260502040313 45 311 0.0 0.9 0.01 0.05 0.01 92 1018.0
20260502035813 45 297 0.0 0.9 0.01 0.05 0.01 92 1018.0
20260502035313 45 333 0.0 0.9 0.01 0.05 0.01 92 1018.1
20260502034813 45 304 0.0 0.0 0.01 0.05 0.01 92 1018.1
20260502034313 45 295 0.0 0.0 0.01 0.05 0.01 92 1018.2
20260502033813 45 292 0.0 0.0 0.00 0.04 0.00 92 1018.2
20260502033313 44 292 0.0 0.0 0.00 0.04 0.00 92 1018.3
20260502032813 44 294 0.0 0.0 0.00 0.04 0.00 92 1018.2
20260502032313 43 294 0.0 0.0 0.00 0.04 0.00 91 1018.2
20260502031813 44 294 0.0 0.0 0.00 0.04 0.00 91 1018.1
20260502031313 44 294 0.0 0.0 0.00 0.04 0.00 91 1018.1
20260502030813 43 278 0.0 0.0 0.00 0.04 0.00 91 1018.1
20260502030313 43 278 0.0 0.0 0.00 0.04 0.00 91 1018.2
20260502025813 44 278 0.0 0.0 0.00 0.04 0.00 90 1018.2
20260502025313 44 278 0.0 0.0 0.00 0.04 0.00 90 1018.2
20260502024813 44 278 0.0 0.0 0.00 0.04 0.00 90 1018.2
20260502024313 44 278 0.0 0.9 0.00 0.04 0.00 90 1018.2
20260502023813 44 278 0.0 0.0 0.00 0.04 0.00 89 1018.3
20260502023313 45 278 0.0 0.0 0.00 0.04 0.00 90 1018.3
20260502022813 45 278 0.0 0.0 0.00 0.04 0.00 90 1018.3
20260502022313 46 278 0.0 0.0 0.00 0.04 0.00 90 1018.2